Time,TemperatureF,DewpointF,PressureIn,WindDirection,WindDirectionDegrees,WindSpeedMPH,WindSpeedGustMPH,Humidity,HourlyPrecipIn,Conditions,Clouds,dailyrainin,SoftwareType,DateUTC
2013-03-11 00:14:00,60.8,48.0,29.90,NW,324,0.0,1.0,63,0.00,,,0.00,weatherlink.com 1.10,2013-03-11 05:14:00,
2013-03-11 00:29:00,59.8,48.0,29.89,SE,145,0.0,1.0,66,0.00,,,0.00,weatherlink.com 1.10,2013-03-11 05:29:00,
2013-03-11 00:44:00,58.9,48.0,29.89,SSW,211,0.0,4.0,67,0.00,,,0.00,weatherlink.com 1.10,2013-03-11 05:44:00,
2013-03-11 00:59:00,58.6,48.0,29.89,WSW,251,0.0,5.0,68,0.00,,,0.00,weatherlink.com 1.10,2013-03-11 05:59:00,
2013-03-11 01:14:00,58.8,48.0,29.89,SW,223,0.0,4.0,68,0.00,,,0.00,weatherlink.com 1.10,2013-03-11 06:14:00,
2013-03-11 01:30:00,58.3,48.0,29.89,South,191,0.0,4.0,68,0.00,,,0.00,weatherlink.com 1.10,2013-03-11 06:30:00,
2013-03-11 01:45:00,58.1,48.0,29.88,South,181,2.0,3.0,69,0.00,,,0.00,weatherlink.com 1.10,2013-03-11 06:45:00,
2013-03-11 02:00:00,57.9,47.0,29.87,South,180,0.0,2.0,68,0.00,,,0.00,weatherlink.com 1.10,2013-03-11 07:00:00,
2013-03-11 02:15:00,57.7,48.0,29.87,South,176,0.0,3.0,69,0.00,,,0.00,weatherlink.com 1.10,2013-03-11 07:15:00,
2013-03-11 02:30:00,56.9,48.0,29.88,South,175,0.0,1.0,71,0.00,,,0.00,weatherlink.com 1.10,2013-03-11 07:30:00,
2013-03-11 02:45:00,56.2,48.0,29.89,South,175,0.0,0.0,74,0.00,,,0.00,weatherlink.com 1.10,2013-03-11 07:45:00,
2013-03-11 03:00:00,56.0,47.0,29.87,SSE,167,1.0,1.0,73,0.00,,,0.00,weatherlink.com 1.10,2013-03-11 08:00:00,
2013-03-11 03:15:00,56.9,48.0,29.87,ENE,67,1.0,7.0,72,0.00,,,0.00,weatherlink.com 1.10,2013-03-11 08:15:00,
2013-03-11 03:30:00,57.4,48.0,29.86,ESE,123,0.0,8.0,71,0.00,,,0.00,weatherlink.com 1.10,2013-03-11 08:30:00,
2013-03-11 03:45:00,58.0,48.0,29.85,SSW,200,0.0,5.0,69,0.00,,,0.00,weatherlink.com 1.10,2013-03-11 08:45:00,
2013-03-11 04:00:00,58.3,48.0,29.85,South,184,0.0,8.0,69,0.00,,,0.00,weatherlink.com 1.10,2013-03-11 09:00:00,
2013-03-11 04:15:00,58.1,48.0,29.84,SSW,202,7.0,7.0,69,0.00,,,0.00,weatherlink.com 1.10,2013-03-11 09:15:00,
2013-03-11 04:30:00,58.4,48.0,29.84,SSE,166,2.0,4.0,68,0.00,,,0.00,weatherlink.com 1.10,2013-03-11 09:30:00,
2013-03-11 04:45:00,58.3,48.0,29.84,West,261,0.0,7.0,69,0.00,,,0.00,weatherlink.com 1.10,2013-03-11 09:45:00,
2013-03-11 05:00:00,57.9,48.0,29.83,West,269,0.0,6.0,70,0.00,,,0.00,weatherlink.com 1.10,2013-03-11 10:00:00,
2013-03-11 05:15:00,58.1,49.0,29.84,SE,146,3.0,7.0,71,0.00,,,0.00,weatherlink.com 1.10,2013-03-11 10:15:00,
2013-03-11 05:30:00,58.2,49.0,29.83,SE,138,0.0,11.0,71,0.00,,,0.00,weatherlink.com 1.10,2013-03-11 10:30:00,
2013-03-11 05:45:00,58.4,49.0,29.83,SSW,202,0.0,10.0,71,0.00,,,0.00,weatherlink.com 1.10,2013-03-11 10:45:00,
2013-03-11 06:00:00,58.2,49.0,29.83,WNW,284,0.0,3.0,72,0.00,,,0.00,weatherlink.com 1.10,2013-03-11 11:00:00,
2013-03-11 06:15:00,58.4,49.0,29.81,WNW,300,0.0,6.0,72,0.00,,,0.00,weatherlink.com 1.10,2013-03-11 11:15:00,
2013-03-11 06:30:00,58.7,50.0,29.81,SSE,153,3.0,6.0,72,0.00,,,0.00,weatherlink.com 1.10,2013-03-11 11:30:00,
2013-03-11 06:45:00,58.7,50.0,29.81,SSW,199,3.0,7.0,73,0.00,,,0.00,weatherlink.com 1.10,2013-03-11 11:45:00,
2013-03-11 07:00:00,58.9,50.0,29.80,SW,217,0.0,7.0,73,0.00,,,0.00,weatherlink.com 1.10,2013-03-11 12:00:00,
2013-03-11 07:15:00,58.9,50.0,29.80,East,98,1.0,9.0,73,0.00,,,0.00,weatherlink.com 1.10,2013-03-11 12:15:00,
2013-03-11 07:30:00,59.1,50.0,29.80,SW,223,1.0,8.0,73,0.00,,,0.00,weatherlink.com 1.10,2013-03-11 12:30:00,
2013-03-11 07:45:00,59.0,51.0,29.79,West,265,0.0,9.0,74,0.00,,,0.00,weatherlink.com 1.10,2013-03-11 12:45:00,
2013-03-11 08:00:00,59.0,51.0,29.79,SW,229,0.0,10.0,74,0.00,,,0.00,weatherlink.com 1.10,2013-03-11 13:00:00,
2013-03-11 08:15:00,59.1,51.0,29.78,WSW,254,0.0,6.0,74,0.00,,,0.00,weatherlink.com 1.10,2013-03-11 13:15:00,
2013-03-11 08:30:00,59.2,51.0,29.78,South,186,1.0,4.0,75,0.00,,,0.00,weatherlink.com 1.10,2013-03-11 13:30:00,
2013-03-11 08:45:00,59.5,52.0,29.79,South,171,1.0,7.0,75,0.00,,,0.00,weatherlink.com 1.10,2013-03-11 13:45:00,
2013-03-11 09:00:00,59.5,52.0,29.79,SW,220,0.0,5.0,77,0.00,,,0.00,weatherlink.com 1.10,2013-03-11 14:00:00,
2013-03-11 09:15:00,58.1,53.0,29.78,SE,146,3.0,4.0,84,0.00,,,0.00,weatherlink.com 1.10,2013-03-11 14:15:00,
2013-03-11 09:30:00,57.5,52.0,29.78,South,189,0.0,5.0,82,0.00,,,0.00,weatherlink.com 1.10,2013-03-11 14:30:00,
2013-03-11 09:45:00,57.6,53.0,29.78,SW,217,2.0,3.0,84,0.00,,,0.00,weatherlink.com 1.10,2013-03-11 14:45:00,
2013-03-11 10:00:00,57.8,53.0,29.80,WSW,252,2.0,6.0,85,0.01,,,0.01,weatherlink.com 1.10,2013-03-11 15:00:00,
2013-03-11 10:15:00,57.0,54.0,29.80,WSW,255,1.0,3.0,88,0.09,,,0.09,weatherlink.com 1.10,2013-03-11 15:15:00,
2013-03-11 10:30:00,56.1,53.0,29.80,WSW,247,0.0,0.0,90,0.15,,,0.15,weatherlink.com 1.10,2013-03-11 15:30:00,
2013-03-11 10:45:00,55.8,54.0,29.81,WSW,247,0.0,1.0,92,0.22,,,0.22,weatherlink.com 1.10,2013-03-11 15:45:00,
2013-03-11 11:00:00,55.5,53.0,29.80,West,270,0.0,2.0,92,0.23,,,0.24,weatherlink.com 1.10,2013-03-11 16:00:00,
2013-03-11 11:15:00,55.4,54.0,29.81,West,259,0.0,3.0,93,0.18,,,0.27,weatherlink.com 1.10,2013-03-11 16:15:00,
2013-03-11 11:30:00,55.5,54.0,29.79,WSW,248,0.0,3.0,94,0.13,,,0.28,weatherlink.com 1.10,2013-03-11 16:30:00,
2013-03-11 11:45:00,55.5,54.0,29.80,WSW,245,0.0,5.0,94,0.10,,,0.32,weatherlink.com 1.10,2013-03-11 16:45:00,
2013-03-11 12:00:00,55.5,54.0,29.81,West,279,0.0,4.0,94,0.11,,,0.35,weatherlink.com 1.10,2013-03-11 17:00:00,
2013-03-11 12:15:00,55.1,53.0,29.80,North,5,0.0,2.0,93,0.14,,,0.41,weatherlink.com 1.10,2013-03-11 17:15:00,
2013-03-11 12:30:00,55.0,53.0,29.80,West,263,0.0,1.0,94,0.15,,,0.43,weatherlink.com 1.10,2013-03-11 17:30:00,
2013-03-11 12:45:00,54.9,53.0,29.79,West,263,0.0,0.0,94,0.12,,,0.45,weatherlink.com 1.10,2013-03-11 17:45:00,
2013-03-11 13:00:00,54.9,53.0,29.79,West,263,0.0,0.0,94,0.13,,,0.48,weatherlink.com 1.10,2013-03-11 18:00:00,
2013-03-11 13:16:00,54.9,53.0,29.78,West,263,0.0,0.0,94,0.12,,,0.53,weatherlink.com 1.10,2013-03-11 18:16:00,
2013-03-11 13:31:00,54.7,53.0,29.77,WSW,239,0.0,0.0,94,0.13,,,0.56,weatherlink.com 1.10,2013-03-11 18:31:00,
2013-03-11 13:46:00,54.5,53.0,29.77,South,191,0.0,3.0,94,0.15,,,0.60,weatherlink.com 1.10,2013-03-11 18:46:00,
2013-03-11 14:01:00,54.4,53.0,29.79,SSE,161,0.0,2.0,94,0.16,,,0.64,weatherlink.com 1.10,2013-03-11 19:01:00,
2013-03-11 14:16:00,54.1,53.0,29.77,South,186,0.0,2.0,94,0.16,,,0.69,weatherlink.com 1.10,2013-03-11 19:16:00,
2013-03-11 15:16:00,53.1,52.0,29.74,SSW,194,0.0,6.0,94,0.18,,,0.88,weatherlink.com 1.10,2013-03-11 20:16:00,
2013-03-11 16:16:00,49.4,47.0,29.76,West,273,0.0,6.0,92,0.06,,,0.94,weatherlink.com 1.10,2013-03-11 21:16:00,
2013-03-11 16:31:00,48.5,46.0,29.77,WSW,255,0.0,3.0,92,0.03,,,0.94,weatherlink.com 1.10,2013-03-11 21:31:00,
2013-03-11 16:46:00,48.0,46.0,29.78,WNW,286,0.0,4.0,92,0.01,,,0.94,weatherlink.com 1.10,2013-03-11 21:46:00,
2013-03-11 17:01:00,47.7,46.0,29.78,WNW,300,2.0,6.0,92,0.00,,,0.94,weatherlink.com 1.10,2013-03-11 22:01:00,
2013-03-11 17:16:00,47.4,45.0,29.78,WNW,294,3.0,9.0,90,0.00,,,0.94,weatherlink.com 1.10,2013-03-11 22:16:00,
2013-03-11 17:31:00,47.2,45.0,29.78,NNW,330,0.0,4.0,91,0.00,,,0.94,weatherlink.com 1.10,2013-03-11 22:31:00,
2013-03-11 17:46:00,47.3,45.0,29.79,WNW,298,0.0,1.0,92,0.00,,,0.94,weatherlink.com 1.10,2013-03-11 22:46:00,
2013-03-11 18:16:00,47.8,46.0,29.80,WNW,284,1.0,2.0,92,0.00,,,0.94,weatherlink.com 1.10,2013-03-11 23:16:00,
2013-03-11 18:31:00,47.4,45.0,29.80,WNW,300,0.0,5.0,90,0.00,,,0.94,weatherlink.com 1.10,2013-03-11 23:31:00,
2013-03-11 18:46:00,46.9,44.0,29.81,NNW,337,1.0,6.0,90,0.00,,,0.94,weatherlink.com 1.10,2013-03-11 23:46:00,
2013-03-11 19:01:00,46.0,43.0,29.81,West,268,0.0,5.0,88,0.00,,,0.94,weatherlink.com 1.10,2013-03-12 00:01:00,
2013-03-11 19:16:00,45.1,42.0,29.82,WNW,301,0.0,3.0,88,0.00,,,0.94,weatherlink.com 1.10,2013-03-12 00:16:00,
2013-03-11 19:31:00,44.4,42.0,29.82,NW,319,0.0,4.0,90,0.00,,,0.94,weatherlink.com 1.10,2013-03-12 00:31:00,
2013-03-11 19:47:00,44.5,42.0,29.83,NW,314,1.0,8.0,90,0.00,,,0.94,weatherlink.com 1.10,2013-03-12 00:47:00,
2013-03-11 20:01:00,44.6,41.0,29.83,NW,308,1.0,9.0,86,0.00,,,0.94,weatherlink.com 1.10,2013-03-12 01:01:00,
2013-03-11 20:17:00,43.8,40.0,29.84,NW,309,0.0,5.0,87,0.00,,,0.94,weatherlink.com 1.10,2013-03-12 01:17:00,
2013-03-11 20:32:00,42.9,40.0,29.84,NW,306,0.0,2.0,89,0.00,,,0.94,weatherlink.com 1.10,2013-03-12 01:32:00,
2013-03-11 20:46:00,43.2,40.0,29.84,NW,319,0.0,4.0,89,0.00,,,0.94,weatherlink.com 1.10,2013-03-12 01:46:00,
2013-03-11 21:02:00,43.1,39.0,29.85,North,349,0.0,9.0,86,0.00,,,0.94,weatherlink.com 1.10,2013-03-12 02:02:00,
2013-03-11 21:32:00,42.1,38.0,29.86,NNW,329,0.0,8.0,86,0.00,,,0.94,weatherlink.com 1.10,2013-03-12 02:32:00,
2013-03-11 21:47:00,41.6,38.0,29.86,NW,306,0.0,4.0,86,0.00,,,0.94,weatherlink.com 1.10,2013-03-12 02:47:00,
2013-03-11 22:02:00,41.4,38.0,29.87,NW,308,0.0,3.0,87,0.00,,,0.94,weatherlink.com 1.10,2013-03-12 03:02:00,
2013-03-11 22:17:00,40.7,38.0,29.87,NW,320,0.0,4.0,89,0.00,,,0.94,weatherlink.com 1.10,2013-03-12 03:17:00,
2013-03-11 22:32:00,40.2,38.0,29.88,NW,316,2.0,3.0,90,0.00,,,0.94,weatherlink.com 1.10,2013-03-12 03:32:00,
2013-03-11 22:47:00,40.2,37.0,29.88,NW,311,0.0,6.0,88,0.00,,,0.94,weatherlink.com 1.10,2013-03-12 03:47:00,
2013-03-11 23:02:00,40.7,37.0,29.88,NNW,347,4.0,7.0,87,0.00,,,0.94,weatherlink.com 1.10,2013-03-12 04:02:00,
2013-03-11 23:17:00,41.0,37.0,29.88,NE,36,1.0,4.0,87,0.00,,,0.94,weatherlink.com 1.10,2013-03-12 04:17:00,
2013-03-11 23:32:00,41.0,37.0,29.88,NW,322,0.0,11.0,85,0.00,,,0.94,weatherlink.com 1.10,2013-03-12 04:32:00,
2013-03-11 23:47:00,40.6,37.0,29.88,North,360,4.0,7.0,85,0.00,,,0.94,weatherlink.com 1.10,2013-03-12 04:47:00,